NOAA 16 DEB, 41281

Orbit data source: Space-Track

NOAA 16 DEB, 41281 is space debris in SSO originally from a launch on Thu, 21 Sep 2000 UTC launched from the Air Force Western Test Range (AFWTR). Debris objects in space refer to the collection of defunct objects orbiting the Earth. Examples of debris include non-operational satellites, rocket bodies, and fragments generated from explosions, collisions, or faulty payload assembly.

Loading next visibility...
Identifier
41281, 2000-055GH
Orbit
SSO
Country
Flag of USUS
Related business
Manufacturer
Unknown
Mission
Spacecraft
Bus & Motor
Unknown
Mass
Unknown
Launch date (UTC)
2000-09-21 (26 years ago)
Launch vehicle
Unknown
Launch site
Air Force Western Test Range (AFWTR)
Object type
Payload
Rocket body
Debris
Shape & HBR
Unknown shape, 0.1 m
Radar Cross Section
Small (<0.1 m²)

Expand to show TLE details & history
Last TLE update: 13 hours ago

TLE from 13 hours ago
0 NOAA 16 DEB
1 41281U 00055GH  26263.16058747  .00002556  00000-0  10415-2 0  9994
2 41281  98.8046 330.9740 0028201 294.9107  64.9144 14.28131719553024
Epoch: 2026-09-20T03:51Z
TLE epoch observation values (Epoch: 2026-09-20T03:51:14.757Z)
Latitude
0.00005°
Longitude
-85.89625°
Altitude
792.37 km
Speed
7.462 km/s
True Right ascension
22h 03m 53s
True Declination
0° 00' 00"
Sunlit
Object was in full shadow at epoch
Visualization orbit readout
Latitude
Unknown
Longitude
Unknown
Altitude
Unknown
Speed
Unknown
Apparent Right ascension
Unknown
Apparent Declination
Unknown
Sunlit
N/A
Visualization observer readout
Local Sidereal Time
10:03:13
Azimuth
Unknown
Elevation
Unknown
Doppler factor
Unknown
Orbital elements
Apogee altitude
815.364 km
Perigee altitude
774.905 km
Semi-major axis
7,173.272 km
Eccentricity
0.00282
Inclination
98.8046°
RAAN
330.974°
Arg. of periapsis
294.9107°
True anomaly
65.20751°
Mean anomaly
64.9144°
Eccentric anomaly
65.06091°
Mean motion
3.57246 °/min
Orbital period
100.77 mins
BSTAR
0.0010415
Loading maneuver chart data...
Computing Atmospheric mass density...

Documentation

Showing up to 5 results
|